GW1915 Weather Reports


time (UTC)temp
C
wind
direction
speed
KPH
gust
KPH
rain 1hr
cm
rain 24hr
cm
rain mn
cm
humidity
%
barometer
mb
20260906065738 15 228 1.6 1.6 0.00 0.00 0.00 99 1008.4
20260906065233 15 230 0.0 1.6 0.00 0.00 0.00 99 1007.9
20260906064729 15 190 0.0 1.6 0.00 0.00 0.00 99 1007.9
20260906064224 15 150 0.0 0.0 0.00 0.00 0.00 99 1007.9
20260906063719 15 152 0.0 1.6 0.00 0.00 0.00 99 1008.4
20260906063215 15 167 0.0 0.0 0.00 0.00 0.00 99 1008.4
20260906062710 15 164 0.0 0.0 0.00 0.00 0.00 99 1008.4
20260906062209 15 182 0.0 0.0 0.00 0.00 0.00 99 1008.7
20260906061705 15 215 1.6 1.6 0.00 0.00 0.00 99 1008.7
20260906061201 15 178 0.0 0.0 0.00 0.00 0.00 99 1008.4
20260906060657 15 170 0.0 0.0 0.00 0.00 0.00 99 1008.4
20260906060154 15 167 0.0 0.0 0.00 0.00 0.00 99 1008.4
20260906055649 16 164 1.6 1.6 0.00 0.00 0.00 99 1008.4
20260906055144 16 133 0.0 0.0 0.00 0.00 0.00 99 1008.7
20260906054640 16 143 0.0 0.0 0.00 0.00 0.00 99 1008.7
20260906054135 16 160 0.0 0.0 0.00 0.00 0.00 99 1008.7
20260906053631 16 188 0.0 0.0 0.00 0.00 0.00 99 1008.7
20260906053126 16 164 0.0 0.0 0.00 0.00 0.00 99 1008.4
20260906052621 16 178 0.0 0.0 0.00 0.00 0.00 99 1008.7
20260906052118 16 210 0.0 0.0 0.00 0.00 0.00 99 1008.4
20260906051614 16 164 0.0 0.0 0.00 0.00 0.00 99 1008.7
20260906051109 16 184 0.0 0.0 0.00 0.00 0.00 99 1008.7
20260906050604 16 172 0.0 0.0 0.00 0.00 0.00 99 1008.7
20260906050059 15 170 0.0 0.0 0.00 0.00 0.00 99 1008.4
20260906045557 15 167 0.0 0.0 0.00 0.00 0.00 99 1008.4
20260906045053 15 169 0.0 0.0 0.00 0.00 0.00 99 1008.4
20260906044549 15 173 0.0 0.0 0.00 0.00 0.00 99 1008.4
20260906044044 15 173 0.0 0.0 0.00 0.00 0.00 99 1008.4
20260906043540 15 173 0.0 0.0 0.00 0.00 0.00 99 1008.4
20260906043036 15 173 0.0 0.0 0.00 0.00 0.00 99 1008.4
20260906042534 15 173 0.0 0.0 0.00 0.00 0.00 99 1008.4
20260906042029 15 166 0.0 0.0 0.00 0.00 0.00 99 1007.9
20260906041526 15 166 0.0 0.0 0.00 0.00 0.00 99 1007.9
20260906041025 15 166 0.0 0.0 0.00 0.00 0.00 99 1008.4
20260906040520 15 166 0.0 0.0 0.00 0.00 0.00 99 1008.4
20260906040015 15 165 0.0 0.0 0.00 0.00 0.00 99 1008.4
20260906035505 15 174 0.0 0.0 0.00 0.00 0.00 99 1008.4
20260906035001 15 173 0.0 0.0 0.00 0.00 0.00 99 1008.4
20260906034500 16 174 0.0 0.0 0.00 0.00 0.00 99 1008.4
20260906033955 16 174 0.0 0.0 0.00 0.00 0.00 99 1008.4
20260906033450 16 179 0.0 0.0 0.00 0.00 0.00 99 1007.9
20260906032946 16 180 0.0 0.0 0.00 0.00 0.00 99 1007.9
20260906032443 16 170 0.0 0.0 0.00 0.00 0.00 99 1007.9
20260906031942 16 166 0.0 0.0 0.00 0.00 0.00 99 1007.9
20260906031438 16 170 0.0 0.0 0.00 0.00 0.00 99 1007.9
20260906030933 16 162 0.0 0.0 0.00 0.00 0.00 99 1008.4
20260906030428 16 170 0.0 0.0 0.00 0.00 0.00 99 1007.9
20260906025922 16 165 0.0 0.0 0.00 0.00 0.00 99 1007.9
20260906025417 16 162 0.0 0.0 0.00 0.00 0.00 99 1007.9
20260906024916 16 170 0.0 0.0 0.00 0.00 0.00 99 1007.9
20260906024415 16 164 0.0 0.0 0.00 0.00 0.00 99 1007.9
20260906023910 16 179 0.0 0.0 0.00 0.00 0.00 99 1007.9
20260906023407 16 184 0.0 0.0 0.00 0.00 0.00 99 1007.9
20260906022906 16 170 0.0 0.0 0.00 0.00 0.00 99 1007.9
20260906022401 16 170 0.0 0.0 0.00 0.00 0.00 99 1007.9
20260906021857 16 170 0.0 0.0 0.00 0.00 0.00 99 1007.9
20260906021356 16 166 0.0 0.0 0.00 0.00 0.00 99 1007.9
20260906020851 17 167 0.0 0.0 0.00 0.00 0.00 99 1007.6
20260906020351 17 164 0.0 0.0 0.00 0.00 0.00 99 1007.6
20260906015846 17 179 0.0 0.0 0.00 0.00 0.00 99 1007.9
20260906015344 17 175 0.0 0.0 0.00 0.00 0.00 99 1007.9
20260906014839 17 178 0.0 0.0 0.00 0.00 0.00 99 1007.6
20260906014333 17 170 0.0 0.0 0.00 0.00 0.00 99 1007.6
20260906013830 16 170 0.0 0.0 0.00 0.00 0.00 99 1007.6
20260906013325 16 170 0.0 0.0 0.00 0.00 0.00 99 1007.6
20260906012820 16 164 0.0 0.0 0.00 0.00 0.00 99 1007.6
20260906012315 16 161 0.0 0.0 0.00 0.00 0.00 99 1007.6
20260906011810 16 163 0.0 0.0 0.00 0.00 0.00 99 1007.6
20260906011310 16 173 0.0 0.0 0.00 0.00 0.00 99 1007.3
20260906010806 17 174 0.0 0.0 0.00 0.00 0.00 99 1007.6
20260906010302 17 177 0.0 0.0 0.00 0.00 0.00 99 1007.3
20260906005756 17 177 0.0 0.0 0.00 0.00 0.00 99 1007.3
20260906005256 17 179 0.0 0.0 0.00 0.00 0.00 99 1007.3
20260906004755 17 173 0.0 0.0 0.00 0.00 0.00 98 1006.9
20260906004249 17 173 0.0 0.0 0.00 0.00 0.00 98 1007.3
20260906003744 17 173 0.0 0.0 0.00 0.00 0.00 98 1007.3
20260906003240 17 173 0.0 0.0 0.00 0.00 0.00 97 1007.3
20260906002735 17 173 0.0 0.0 0.00 0.00 0.00 97 1006.9
20260906002234 17 173 0.0 0.0 0.00 0.00 0.00 96 1007.3
20260906001730 17 176 0.0 0.0 0.00 0.00 0.00 96 1006.9
20260906001225 17 175 0.0 0.0 0.00 0.00 0.00 95 1006.9
20260906000721 17 176 0.0 0.0 0.00 0.00 0.00 95 1006.9
20260906000215 18 193 0.0 0.0 0.00 0.00 0.00 94 1006.9
20260905235715 18 166 0.0 0.0 0.00 0.00 0.00 93 1006.9
20260905235210 18 170 0.0 0.0 0.00 0.00 0.00 92 1006.9
20260905234705 18 171 0.0 0.0 0.00 0.00 0.00 92 1006.9
20260905234201 19 171 0.0 0.0 0.00 0.00 0.00 91 1006.6
20260905233656 19 170 0.0 0.0 0.00 0.00 0.00 91 1006.6
20260905233155 19 175 0.0 0.0 0.00 0.00 0.00 92 1006.6
20260905232650 20 171 0.0 0.0 0.00 0.00 0.00 92 1006.9
20260905232146 20 163 0.0 0.0 0.00 0.00 0.00 93 1006.2
20260905231641 20 174 0.0 0.0 0.00 0.00 0.00 93 1006.6
20260905231137 20 198 0.0 0.0 0.00 0.00 0.00 91 1006.6
20260905230633 20 171 0.0 0.0 0.00 0.00 0.00 91 1006.2
20260905230131 20 181 0.0 0.0 0.00 0.00 0.00 90 1006.6
20260905225624 20 153 0.0 1.6 0.00 0.00 0.00 89 1006.2
20260905225120 20 132 0.0 0.0 0.00 0.00 0.00 90 1006.2
20260905224619 20 159 0.0 1.6 0.00 0.00 0.00 90 1006.2
20260905224119 20 163 1.6 1.6 0.00 0.00 0.00 91 1006.2
20260905223616 20 141 0.0 1.6 0.00 0.00 0.00 91 1006.2
20260905223113 21 121 0.0 3.2 0.00 0.00 0.00 92 1006.2
20260905222613 21 146 0.0 3.2 0.00 0.00 0.00 93 1006.2
20260905222108 21 149 0.0 0.0 0.00 0.00 0.00 92 1006.2
20260905221604 21 196 0.0 0.0 0.00 0.00 0.00 90 1006.2
20260905221100 21 200 0.0 1.6 0.00 0.00 0.00 86 1006.2
20260905220555 21 162 0.0 0.0 0.00 0.00 0.00 89 1005.9
20260905220051 22 162 0.0 0.0 0.00 0.00 0.00 90 1006.2
20260905215550 21 162 0.0 0.0 0.00 0.00 0.00 87 1006.2
20260905215046 21 132 0.0 0.0 0.00 0.00 0.00 89 1006.2
20260905214542 21 132 0.0 0.0 0.00 0.00 0.00 89 1006.2
20260905214037 21 132 0.0 0.0 0.00 0.00 0.00 87 1006.2
20260905213532 21 132 0.0 0.0 0.00 0.00 0.00 87 1005.9
20260905213028 21 132 0.0 0.0 0.00 0.00 0.00 89 1006.2
20260905212522 22 132 0.0 0.0 0.00 0.00 0.00 87 1005.9
20260905212022 21 132 0.0 0.0 0.00 0.00 0.00 86 1005.9
20260905211517 21 132 0.0 0.0 0.00 0.00 0.00 88 1005.9
20260905211013 22 132 0.0 0.0 0.00 0.00 0.00 87 1005.9
20260905210509 21 132 0.0 0.0 0.00 0.00 0.00 84 1005.6
20260905210008 21 132 0.0 1.6 0.00 0.00 0.00 88 1005.6
20260905205503 21 132 0.0 1.6 0.00 0.00 0.00 90 1005.6
20260905205001 21 132 0.0 0.0 0.00 0.00 0.00 89 1005.6
20260905204457 21 167 0.0 0.0 0.00 0.00 0.00 91 1005.6
20260905203956 21 174 0.0 0.0 0.00 0.00 0.00 90 1005.6
20260905203452 21 190 0.0 0.0 0.00 0.00 0.00 89 1005.6
20260905202947 21 149 0.0 0.0 0.00 0.00 0.00 91 1005.6
20260905202442 20 174 0.0 0.0 0.00 0.00 0.00 94 1005.6
20260905201938 20 191 0.0 0.0 0.00 0.00 0.00 94 1005.6
20260905201433 20 176 0.0 0.0 0.00 0.00 0.00 94 1005.6
20260905200933 20 163 0.0 0.0 0.00 0.00 0.00 93 1005.6
20260905200429 20 167 0.0 0.0 0.00 0.00 0.00 92 1005.6
20260905195927 20 159 0.0 0.0 0.00 0.00 0.00 91 1005.6
20260905195422 20 159 0.0 0.0 0.00 0.00 0.00 88 1005.6
20260905194918 20 151 0.0 0.0 0.00 0.00 0.00 85 1005.6
20260905194417 21 248 3.2 3.2 0.00 0.00 0.00 81 1005.6
20260905193917 22 194 3.2 3.2 0.00 0.00 0.00 78 1005.6
20260905193412 22 265 1.6 3.2 0.00 0.00 0.00 77 1005.6
20260905192907 23 199 0.0 1.6 0.00 0.00 0.00 73 1005.2
20260905192402 23 137 0.0 4.8 0.00 0.00 0.00 77 1005.2
20260905191857 23 162 0.0 1.6 0.00 0.00 0.00 65 1005.2
20260905191356 24 337 4.8 9.7 0.00 0.00 0.00 66 1005.6
20260905190855 23 299 3.2 6.4 0.00 0.00 0.00 73 1005.2
20260905190348 23 266 3.2 4.8 0.00 0.00 0.00 70 1005.6
20260905185848 23 265 3.2 3.2 0.00 0.00 0.00 75 1005.2
20260905185343 23 134 0.0 0.0 0.00 0.00 0.00 79 1005.6
20260905184842 22 160 0.0 0.0 0.00 0.00 0.00 77 1005.6
20260905184341 22 167 0.0 0.0 0.00 0.00 0.00 78 1005.6
20260905183840 22 163 0.0 0.0 0.00 0.00 0.00 77 1005.6
20260905183335 22 154 0.0 1.6 0.00 0.00 0.00 77 1005.6
20260905182830 23 155 1.6 3.2 0.00 0.00 0.00 75 1005.6
20260905182329 23 204 1.6 1.6 0.00 0.00 0.00 72 1005.6
20260905181825 25 193 0.0 3.2 0.00 0.00 0.00 64 1005.6
20260905181324 25 248 3.2 6.4 0.00 0.00 0.00 69 1005.6
20260905180824 23 203 1.6 3.2 0.00 0.00 0.00 69 1005.6
20260905180319 23 232 1.6 6.4 0.00 0.00 0.00 74 1005.6
20260905175814 23 140 1.6 3.2 0.00 0.00 0.00 70 1005.6
20260905175308 23 29 3.2 4.8 0.00 0.00 0.00 67 1005.6
20260905174804 24 99 1.6 6.4 0.00 0.00 0.00 71 1005.9
20260905174300 23 134 1.6 3.2 0.00 0.00 0.00 70 1005.6
20260905173755 23 154 0.0 3.2 0.00 0.00 0.00 68 1005.6
20260905173251 24 220 3.2 11.3 0.00 0.00 0.00 70 1005.6
20260905172751 25 140 1.6 1.6 0.00 0.00 0.00 74 1005.6
20260905172249 24 86 3.2 4.8 0.00 0.00 0.00 66 1005.6
20260905171746 23 148 0.0 6.4 0.00 0.00 0.00 68 1005.6
20260905171242 23 290 3.2 4.8 0.00 0.00 0.00 70 1005.6
20260905170738 23 215 1.6 4.8 0.00 0.00 0.00 71 1005.6
20260905170233 23 114 0.0 4.8 0.00 0.00 0.00 67 1005.9
20260905165732 23 54 1.6 4.8 0.00 0.00 0.00 71 1006.2
20260905165228 22 352 3.2 4.8 0.00 0.00 0.00 68 1005.9
20260905164727 22 313 3.2 9.7 0.00 0.00 0.00 74 1005.9
20260905164222 25 327 4.8 6.4 0.00 0.00 0.00 70 1005.6
20260905163718 24 168 0.0 3.2 0.00 0.00 0.00 69 1005.9
20260905163215 23 162 0.0 4.8 0.00 0.00 0.00 71 1005.6
20260905162711 22 301 6.4 6.4 0.00 0.00 0.00 74 1005.6
20260905162210 23 184 1.6 4.8 0.00 0.00 0.00 74 1005.9
20260905161705 23 303 6.4 6.4 0.00 0.00 0.00 71 1005.9
20260905161203 22 176 0.0 1.6 0.00 0.00 0.00 77 1005.6
20260905160656 22 167 0.0 3.2 0.00 0.00 0.00 77 1005.6
20260905160155 23 162 1.6 4.8 0.00 0.00 0.00 72 1005.9
20260905155650 23 154 0.0 3.2 0.00 0.00 0.00 73 1005.6
20260905155149 22 152 4.8 6.4 0.00 0.00 0.00 70 1005.9
20260905154644 22 166 0.0 3.2 0.00 0.00 0.00 75 1005.6
20260905154139 22 227 1.6 3.2 0.00 0.00 0.00 75 1005.9
20260905153635 23 178 3.2 12.9 0.00 0.00 0.00 73 1006.2
20260905153130 22 230 0.0 3.2 0.00 0.00 0.00 76 1005.9
20260905152625 22 143 3.2 4.8 0.00 0.00 0.00 78 1005.9
20260905152120 22 259 3.2 4.8 0.00 0.00 0.00 74 1006.2
20260905151615 22 175 1.6 3.2 0.00 0.00 0.00 79 1006.2
20260905151110 22 216 0.0 3.2 0.00 0.00 0.00 79 1006.2
20260905150606 21 166 0.0 3.2 0.00 0.00 0.00 79 1005.9
20260905145556 22 355 3.2 4.8 0.00 0.00 0.00 82 1005.9
20260905145056 22 217 4.8 6.4 0.00 0.00 0.00 77 1006.2
20260905144551 21 261 3.2 9.7 0.00 0.00 0.00 79 1006.2
20260905144050 21 112 3.2 6.4 0.00 0.00 0.00 79 1005.9
20260905143550 22 191 1.6 3.2 0.00 0.00 0.00 83 1005.9
20260905143045 21 185 0.0 6.4 0.00 0.00 0.00 80 1005.6
20260905142544 21 287 1.6 6.4 0.00 0.00 0.00 81 1005.6
20260905142038 21 276 6.4 11.3 0.00 0.00 0.00 81 1005.6
20260905141533 20 180 1.6 6.4 0.00 0.00 0.00 82 1005.9
20260905141029 21 140 0.0 4.8 0.00 0.00 0.00 84 1005.9
20260905140524 20 86 1.6 4.8 0.00 0.00 0.00 82 1005.9
20260905140023 20 273 3.2 6.4 0.00 0.00 0.00 84 1005.9
20260905135519 20 57 3.2 9.7 0.00 0.00 0.00 85 1005.9
20260905135013 20 273 3.2 9.7 0.00 0.00 0.00 86 1005.9
20260905134508 20 158 0.0 4.8 0.00 0.00 0.00 88 1005.6
20260905134007 19 269 3.2 4.8 0.00 0.00 0.00 89 1006.2
20260905133503 19 194 3.2 9.7 0.00 0.00 0.00 89 1006.2
20260905133001 19 270 0.0 6.4 0.00 0.00 0.00 90 1006.2
20260905132457 18 26 1.6 3.2 0.00 0.00 0.00 91 1006.2
20260905131951 18 260 3.2 4.8 0.00 0.00 0.00 90 1006.2
20260905131447 18 179 0.0 1.6 0.00 0.00 0.00 92 1006.2
20260905130948 18 114 0.0 6.4 0.00 0.00 0.00 91 1006.2
20260905130442 18 281 6.4 11.3 0.00 0.00 0.00 92 1006.2
20260905125941 18 174 0.0 0.0 0.00 0.00 0.00 93 1005.9
20260905125436 18 161 0.0 1.6 0.00 0.00 0.00 94 1006.6
20260905124932 18 197 0.0 1.6 0.00 0.00 0.00 93 1006.2
20260905124429 17 73 3.2 3.2 0.00 0.00 0.00 94 1006.2
20260905123928 17 231 0.0 3.2 0.00 0.00 0.00 95 1006.6
20260905123425 17 201 0.0 3.2 0.00 0.00 0.00 97 1006.2
20260905122920 17 244 1.6 3.2 0.00 0.00 0.00 99 1006.2
20260905122420 16 122 0.0 3.2 0.00 0.00 0.00 99 1006.6
20260905121915 16 142 0.0 4.8 0.00 0.00 0.00 99 1006.2
20260905121411 16 189 0.0 0.0 0.00 0.00 0.00 99 1006.2
20260905120909 16 223 0.0 0.0 0.00 0.00 0.00 99 1006.2
20260905120404 16 160 0.0 1.6 0.00 0.00 0.00 99 1006.2
20260905115859 16 183 0.0 1.6 0.00 0.00 0.00 99 1006.2
20260905115358 15 153 0.0 1.6 0.00 0.00 0.00 99 1006.2
20260905114853 15 162 0.0 0.0 0.00 0.00 0.00 99 1006.2
20260905114352 15 198 0.0 3.2 0.00 0.00 0.00 99 1005.6
20260905113846 15 156 0.0 1.6 0.00 0.00 0.00 99 1005.9
20260905113341 15 176 0.0 0.0 0.00 0.00 0.00 99 1005.9
20260905112837 15 201 0.0 0.0 0.00 0.00 0.00 99 1005.9
20260905112331 15 186 0.0 0.0 0.00 0.00 0.00 99 1005.9
20260905111827 14 177 0.0 0.0 0.00 0.00 0.00 99 1005.9
20260905111321 14 215 1.6 1.6 0.00 0.00 0.00 99 1005.6
20260905110820 14 178 0.0 0.0 0.00 0.00 0.00 99 1005.6
20260905110314 14 211 0.0 0.0 0.00 0.00 0.00 99 1005.6
20260905105810 14 172 0.0 0.0 0.00 0.00 0.00 99 1005.6
20260905105309 14 180 0.0 0.0 0.00 0.00 0.00 99 1005.6
20260905104803 14 181 0.0 0.0 0.00 0.00 0.00 99 1005.6
20260905104300 14 181 0.0 0.0 0.00 0.00 0.00 99 1005.6
20260905103759 14 173 0.0 0.0 0.00 0.00 0.00 99 1005.2
20260905103255 14 190 0.0 0.0 0.00 0.00 0.00 99 1005.6
20260905102750 14 190 0.0 0.0 0.00 0.00 0.00 99 1005.2
20260905102247 14 183 0.0 0.0 0.00 0.00 0.00 99 1005.6
20260905101746 14 186 0.0 0.0 0.00 0.00 0.00 99 1005.2
20260905101245 15 197 0.0 0.0 0.00 0.00 0.00 99 1005.2
20260905100740 15 209 0.0 0.0 0.00 0.00 0.00 99 1005.2
20260905100236 15 183 0.0 0.0 0.00 0.00 0.00 99 1005.2
20260905095735 15 189 0.0 0.0 0.00 0.00 0.00 99 1005.6
20260905095235 15 187 0.0 0.0 0.00 0.00 0.00 99 1005.2
20260905094730 15 189 0.0 0.0 0.00 0.00 0.00 99 1005.2
20260905094225 15 176 0.0 0.0 0.00 0.00 0.00 99 1005.2
20260905093719 15 179 0.0 0.0 0.00 0.00 0.00 99 1005.2
20260905093215 15 184 0.0 0.0 0.00 0.00 0.00 99 1005.2
20260905092710 15 189 0.0 0.0 0.00 0.00 0.00 99 1005.2
20260905092206 15 192 0.0 0.0 0.00 0.00 0.00 99 1005.2
20260905091705 15 185 0.0 0.0 0.00 0.00 0.00 99 1005.2
20260905091200 15 202 0.0 0.0 0.00 0.00 0.00 99 1005.2
20260905090659 15 188 0.0 0.0 0.00 0.00 0.00 99 1005.2
20260905090155 15 185 0.0 0.0 0.00 0.00 0.00 99 1005.2
20260905085653 15 194 0.0 0.0 0.00 0.00 0.00 99 1005.6
20260905085149 15 174 0.0 0.0 0.00 0.00 0.00 99 1005.2
20260905084649 15 172 0.0 0.0 0.00 0.00 0.00 99 1005.2
20260905084143 15 207 0.0 0.0 0.00 0.00 0.00 99 1004.9
20260905083638 15 185 0.0 0.0 0.00 0.00 0.00 99 1004.9
20260905083135 15 201 0.0 0.0 0.00 0.00 0.00 99 1005.2
20260905082630 15 179 0.0 0.0 0.00 0.00 0.00 99 1005.2
20260905082126 15 184 0.0 0.0 0.00 0.00 0.00 99 1005.6
20260905081625 15 183 0.0 0.0 0.00 0.00 0.00 99 1005.2
20260905081120 15 175 0.0 0.0 0.00 0.00 0.00 99 1005.2
20260905080615 15 183 0.0 0.0 0.00 0.00 0.00 99 1005.2
20260905080115 16 186 0.0 0.0 0.00 0.00 0.00 99 1005.2
20260905075614 16 205 0.0 0.0 0.00 0.00 0.00 99 1005.2
20260905075108 16 198 0.0 0.0 0.00 0.00 0.00 99 1005.2
20260905074607 16 188 0.0 0.0 0.00 0.00 0.00 99 1005.2
20260905074103 16 178 0.0 0.0 0.00 0.00 0.00 99 1004.9
20260905073559 16 172 0.0 1.6 0.00 0.00 0.00 99 1005.2
20260905073054 16 183 0.0 0.0 0.00 0.00 0.00 99 1005.2
20260905072553 16 156 0.0 0.0 0.00 0.00 0.00 99 1004.9
20260905072049 16 178 0.0 0.0 0.00 0.00 0.00 99 1005.2
20260905071546 16 205 1.6 1.6 0.00 0.00 0.00 98 1005.2
20260905071040 16 177 0.0 0.0 0.00 0.00 0.00 98 1005.2
20260905070535 16 177 0.0 0.0 0.00 0.00 0.00 98 1005.2